Location: Avully
(45.9633°N, 6.0228°E)
Time: 02:24:52
(UTC+00:00)

Helios 1A Rocket - Pass Details

Date: 23 May 2024
Orbit: 520 x 543 km, 98.3° (Epoch: 21 June)

Event Time Altitude Azimuth Distance (km) Brightness Sun altitude
Exits shadow 00:09:54 37° 96° (E) 848 3.7 -22.9°
Maximum altitude 00:10:33 40° 70° (ENE) 798 3.8 -22.8°
Drops below altitude 10° 00:14:12 10° 0° (N) 1,794 6.5 -22.7°
Sets 00:16:23 0° 353° (N) 2,684 7.6 -22.7°
